Theta_e
297 297 296 295 295 295 291 290 287 290 293 296 301 302 304 306 307 305 304 306 306 304 304 302 301 302 303 304 304 304 306 309 308 309 311 310 310 307 312 309 308 309 307 304
294 300 299 296 298 298 298 298 295 295 295 300 306 307 305 305 305 306 307 308 310 310 307 305 305 304 304 305 305 305 306 309 310 312 311 311 308 305 306 307 307 306 307 306
291 300 297 291 296 298 299 300 298 293 300 305 304 304 305 305 305 306 307 307 308 307 306 307 306 306 305 304 307 306 305 308 311 311 310 310 309 308 304 305 304 304 309 307
291 292 283 298 305 303 300 301 302 299 301 302 304 306 307 307 305 304 305 306 307 308 309 308 309 310 310 308 307 307 305 309 311 311 310 310 308 308 304 304 304 303 309 309
290 287 294 299 302 301 299 294 301 300 300 299 302 299 296 302 304 303 303 304 305 307 307 308 309 311 309 308 308 307 307 307 310 311 309 307 308 309 307 303 302 304 308 310
293 288 287 295 303 305 305 290 299 298 298 298 294 286 291 300 304 303 304 303 304 306 306 306 307 310 310 309 310 307 308 307 311 311 311 309 305 309 309 308 306 305 305 305
291 291 296 300 303 302 287 287 297 298 298 295 291 294 297 301 300 301 303 304 304 304 303 304 306 308 308 307 307 309 310 309 311 311 309 310 305 303 309 309 311 310 305 304
291 288 286 300 299 292 295 296 296 296 298 297 298 298 298 299 299 300 301 302 303 301 302 304 306 309 309 308 310 312 312 311 309 310 310 312 309 306 308 305 309 309 305 304
292 290 298 302 297 299 298 294 294 295 296 299 297 296 297 298 298 299 300 301 302 300 301 303 305 305 305 308 311 310 311 311 309 309 309 311 309 304 306 306 304 306 307 306
294 298 301 300 298 297 297 295 297 297 297 298 297 298 298 298 298 298 299 299 301 300 300 301 304 305 304 307 309 311 312 311 310 310 309 310 308 310 306 306 301 303 305 305
294 298 301 300 299 298 299 299 300 300 300 300 299 298 298 298 298 299 299 300 300 300 300 301 303 304 305 307 307 305 306 308 308 309 309 306 306 307 308 306 304 303 302 304
292 298 297 296 299 301 299 299 300 299 300 300 299 299 298 299 299 299 300 301 300 300 301 302 303 304 305 305 306 304 302 304 305 307 309 308 305 308 303 301 300 296 297 300
298 300 298 300 301 302 300 300 301 300 299 299 300 300 299 298 299 302 300 301 301 301 301 301 302 302 302 304 305 304 301 302 304 305 308 307 307 306 306 307 303 298 298 294
301 300 296 298 296 299 300 301 302 301 300 300 299 299 298 298 298 299 299 300 301 299 298 299 299 298 301 302 304 304 301 299 301 305 305 305 305 306 307 307 307 309 302 301
301 300 297 298 299 299 299 299 298 298 298 298 298 298 298 297 296 298 299 301 299 299 299 299 298 298 300 301 301 302 302 299 299 300 302 303 303 304 305 308 308 307 309 303
300 299 299 298 298 297 297 296 295 296 297 297 297 298 298 297 297 298 299 300 297 295 298 297 296 297 299 299 299 302 298 297 296 298 299 300 302 302 305 306 307 308 306 307
296 296 296 296 297 296 295 297 297 297 297 296 297 298 297 296 297 297 298 298 297 296 297 296 296 298 298 299 300 301 300 298 295 296 296 299 300 301 301 304 306 308 308 307
300 299 298 297 296 296 296 298 298 298 297 298 299 298 296 295 294 295 295 296 295 295 296 296 296 297 298 300 300 299 298 299 299 297 299 299 299 301 301 300 301 302 306 309
300 299 298 298 298 297 297 297 297 298 298 299 297 296 296 296 296 295 294 294 293 292 294 296 297 299 300 299 297 298 298 299 300 299 297 294 295 296 297 298 298 299 301 303
299 300 300 299 299 297 297 299 298 298 297 298 296 295 295 296 296 295 294 292 292 293 294 295 297 299 300 297 296 299 299 299 298 296 295 294 294 294 295 294 297 299 300 300
299 300 300 299 298 298 298 299 298 296 296 298 295 295 294 295 295 294 291 290 292 294 294 294 296 299 298 291 297 301 299 298 296 294 293 294 294 295 295 295 296 297 298 300
298 299 299 299 298 297 296 297 297 295 296 297 297 296 294 293 293 293 293 291 293 292 293 293 294 292 289 288 296 297 296 295 293 293 294 295 295 294 294 294 295 296 297 298
298 299 299 299 298 296 296 297 295 294 295 295 295 294 292 292 292 290 290 294 293 293 292 293 291 287 285 293 294 295 296 295 295 295 295 295 295 294 293 293 294 295 295 299
298 298 298 298 298 295 295 296 294 294 294 294 296 295 292 291 292 293 293 292 290 290 292 292 290 287 287 297 294 293 292 292 294 296 295 291 296 295 294 293 292 293 295 296
299 298 298 297 296 294 294 294 293 292 293 292 294 293 293 293 293 293 293 293 291 292 293 290 288 288 296 298 296 296 294 292 291 291 295 294 294 295 295 294 293 292 294 295
297 296 296 297 297 294 294 292 291 291 291 291 292 291 291 293 294 293 293 292 294 292 293 293 294 294 295 297 296 296 295 296 294 292 291 293 293 295 296 294 293 292 293 294
298 295 297 296 295 294 293 292 291 292 292 291 291 292 291 293 293 293 292 294 294 294 295 295 294 293 294 293 293 295 296 296 293 294 292 292 293 294 293 293 292 291 292 293
Wind_Speed
6 9 10 7 9 11 8 1 4 2 5 6 12 11 13 12 12 10 8 8 7 7 9 9 7 7 6 7 6 6 7 6 6 6 6 6 5 6 5 5 4 3 3 1
7 11 13 10 7 9 9 6 5 4 4 2 6 6 11 9 11 10 11 12 11 10 10 10 10 9 7 8 7 5 7 6 6 5 5 5 6 5 4 4 5 3 3 4
4 4 6 7 4 8 5 5 1 4 4 5 4 4 5 7 8 10 12 12 10 10 7 5 6 6 5 10 6 6 7 6 6 5 5 6 3 4 5 5 3 5 2 4
2 3 2 3 8 9 12 7 7 7 8 5 4 4 2 5 4 8 8 9 10 9 9 7 6 6 7 10 8 7 7 7 6 5 5 6 3 3 4 4 4 4 5 4
4 3 4 7 4 3 1 5 6 4 2 4 2 4 4 4 4 5 6 8 6 7 7 8 9 9 9 8 9 7 10 7 7 5 5 4 4 5 4 4 3 4 3 5
2 4 5 1 5 9 9 3 3 2 1 1 2 3 5 7 6 8 8 6 7 9 6 7 10 9 9 11 9 9 10 7 6 6 6 5 6 5 4 4 4 4 6 5
2 2 2 4 8 4 4 5 2 3 3 2 2 7 7 6 7 6 6 8 8 8 7 8 9 10 10 8 9 8 8 8 6 5 7 6 4 4 5 5 5 4 5 6
2 2 3 4 3 6 6 2 3 4 5 5 7 8 5 6 6 8 8 8 8 7 8 8 8 9 11 10 10 9 7 7 6 6 5 5 6 6 6 4 4 5 5 6
3 5 6 3 6 4 7 5 3 3 5 7 7 5 6 6 7 7 8 7 6 6 8 8 7 7 10 12 12 8 6 4 4 6 6 7 6 6 3 3 4 4 4 4
3 2 5 5 3 4 6 5 5 5 6 5 6 7 7 7 7 6 7 6 5 6 7 7 7 6 6 8 10 11 8 4 5 9 10 6 4 4 4 4 3 4 4 4
1 0 3 2 5 5 7 6 4 5 5 7 6 8 7 6 7 7 7 5 5 6 7 8 7 7 6 6 6 8 7 4 4 4 6 7 5 5 4 4 6 5 5 4
5 6 5 5 5 6 6 5 7 4 7 6 4 8 4 7 6 5 7 7 6 7 6 9 8 7 8 8 5 5 6 6 4 3 3 4 5 5 7 9 10 12 12 6
4 5 4 5 1 5 1 4 6 6 5 5 6 4 4 3 6 7 6 8 6 6 6 7 8 8 9 9 8 5 5 6 5 6 3 4 2 4 6 4 7 6 11 10
2 4 3 4 2 4 7 6 6 5 4 3 4 5 4 4 5 7 7 6 5 6 7 8 8 9 10 11 9 7 5 7 5 5 4 4 3 4 6 6 4 4 8 6
4 4 5 6 5 5 5 4 5 4 3 5 5 4 5 6 6 6 6 4 5 5 8 10 10 11 12 11 10 9 6 5 5 6 5 5 4 4 5 6 6 6 5 2
5 7 7 6 6 5 4 4 3 1 2 4 5 5 5 5 6 5 3 5 5 6 7 9 10 10 11 10 9 7 6 9 7 5 6 5 3 3 4 5 5 3 4 3
6 5 4 4 3 3 2 1 2 1 3 4 2 2 4 5 5 5 5 6 6 6 7 8 10 10 11 10 9 7 6 6 9 5 5 5 4 4 4 5 6 5 4 3
6 6 6 7 6 4 2 2 0 2 2 4 2 2 4 4 4 6 6 6 7 8 7 9 9 11 11 12 11 7 5 5 6 6 5 5 5 4 4 4 6 6 7 5
6 8 7 7 6 5 3 2 3 4 3 2 2 3 4 3 4 5 6 6 6 6 8 9 13 11 11 16 13 6 6 7 7 6 5 7 6 6 5 5 5 6 6 7
6 6 7 6 5 3 2 4 4 4 4 4 3 3 5 5 4 6 5 6 6 5 7 8 10 8 8 8 7 5 5 6 6 6 6 6 8 8 8 7 8 8 8 7
8 7 7 6 4 2 3 4 2 4 6 4 4 5 6 6 5 6 5 4 7 7 8 10 8 6 6 5 6 2 3 4 4 5 7 9 9 8 9 9 8 7 8 8
6 6 7 6 4 3 4 3 3 4 4 3 5 5 5 7 5 5 6 6 6 9 5 5 5 6 5 9 5 3 3 4 4 4 6 7 7 8 8 8 8 8 8 8
6 6 5 5 6 5 3 4 4 3 4 4 5 5 4 4 4 3 5 6 4 7 5 5 7 8 6 4 4 5 5 4 4 3 3 5 6 7 8 9 9 8 9 10
5 5 5 4 3 2 4 4 5 4 4 6 6 5 3 4 4 4 4 8 9 7 5 5 7 9 7 3 3 4 4 5 5 4 3 5 5 6 6 7 8 9 9 9
7 5 4 4 5 5 6 5 4 5 5 6 6 6 5 4 5 3 4 5 8 6 5 7 9 8 5 4 4 4 4 4 4 4 4 5 5 5 5 6 6 7 8 7
6 5 5 7 6 5 5 4 4 4 4 5 5 5 4 4 4 4 4 6 5 5 4 5 5 5 5 5 4 4 5 5 4 5 5 5 5 6 6 7 8 7 6 7
5 5 3 4 4 5 5 5 5 6 5 5 6 5 5 5 5 5 6 5 5 5 4 4 4 5 5 5 5 5 5 6 6 4 5 5 4 4 4 5 5 7 7 6
Wind_Direction
70 96 86 64 60 49 58 133 108 180 76 356 15 33 22 352 358 1 7 18 349 340 321 295 291 240 236 251 259 258 271 268 249 259 253 246 258 256 255 270 284 293 245 233
79 91 82 67 38 50 35 30 59 77 73 24 23 62 31 353 12 338 349 343 334 318 287 266 240 253 254 250 245 248 256 263 262 282 296 251 265 254 269 267 292 289 255 227
175 132 113 48 40 88 80 36 40 29 353 322 326 27 23 322 345 345 343 337 332 320 324 335 323 304 293 287 270 252 254 258 259 263 272 268 274 252 260 251 266 278 265 212
142 48 50 141 108 117 90 50 44 59 38 2 27 136 25 344 323 329 331 327 320 316 309 295 289 265 240 262 268 266 263 258 253 257 262 266 254 235 250 238 239 249 246 221
118 94 107 175 184 287 232 57 26 80 46 349 54 31 315 317 304 292 298 305 294 301 308 310 298 280 259 259 267 257 265 251 263 249 259 243 251 247 232 235 238 244 243 247
115 141 199 114 306 333 132 106 334 142 211 284 3 38 262 275 307 301 313 311 305 308 312 323 317 310 274 255 253 242 254 255 251 256 243 230 223 259 228 215 236 238 259 243
49 91 85 333 333 2 60 241 265 219 208 240 221 206 242 315 314 304 295 303 310 318 314 301 316 327 318 296 277 266 264 259 254 246 252 243 233 216 243 227 237 241 254 259
66 122 237 327 1 93 211 247 212 226 233 253 252 277 289 294 306 309 313 318 320 321 317 316 323 341 348 328 297 288 270 276 271 266 255 241 218 242 220 224 236 256 258 277
154 197 218 299 137 186 170 190 233 240 253 236 272 274 280 270 283 286 294 296 304 317 310 316 316 330 339 336 340 310 288 301 291 292 267 254 226 235 230 226 232 252 249 264
86 251 180 165 213 194 205 219 225 233 227 230 252 269 263 273 287 292 288 299 288 303 319 312 313 320 308 318 335 348 345 14 29 7 326 293 271 230 214 205 244 258 249 254
10 337 117 187 232 215 230 240 244 252 241 255 276 277 262 283 299 289 294 298 295 311 312 307 311 312 310 313 329 334 324 322 0 8 330 316 282 248 223 201 198 225 236 235
208 208 155 233 242 216 219 260 264 324 330 341 319 293 327 313 307 302 309 311 319 329 327 327 324 323 327 331 325 329 322 326 323 309 305 302 329 321 247 238 228 235 247 219
178 188 201 217 146 281 236 30 57 70 40 25 0 11 350 319 323 327 342 355 358 350 338 348 349 340 335 336 322 327 319 311 303 295 302 293 332 317 323 289 275 258 235 229
85 105 62 58 143 75 89 67 61 59 52 29 355 358 351 343 339 348 347 343 10 354 354 345 335 330 332 329 326 323 324 305 317 307 291 295 286 319 314 297 280 259 232 215
39 122 121 125 101 82 75 71 54 36 9 354 349 2 9 359 342 330 344 15 335 345 354 348 341 333 334 331 327 320 326 320 321 306 296 283 297 309 288 283 282 277 291 298
134 86 106 113 98 79 86 59 73 28 354 329 6 7 348 346 345 351 2 333 342 333 328 328 326 323 324 325 319 325 320 309 303 310 306 291 270 260 276 294 293 293 289 280
130 121 124 106 133 134 108 177 151 190 324 1 339 335 5 358 349 339 329 331 328 323 310 326 317 315 320 315 320 314 311 306 313 320 315 297 290 308 323 320 307 290 258 254
135 134 147 153 157 158 187 165 205 263 299 292 179 355 345 354 321 325 322 317 323 322 317 323 316 325 326 334 332 318 314 331 316 328 316 359 350 352 339 327 323 325 325 286
131 138 145 142 163 173 178 195 266 273 303 252 217 290 286 293 298 307 315 325 323 318 313 321 313 316 341 356 358 359 2 0 359 341 350 353 354 342 325 326 317 315 317 310
133 140 147 160 179 143 178 225 269 287 293 235 256 285 292 288 285 308 321 308 279 259 292 300 319 323 335 335 8 48 16 339 337 347 358 359 353 344 337 323 324 319 318 307
153 161 166 176 188 180 221 231 245 291 297 238 264 277 281 280 278 300 314 312 286 309 312 308 318 327 328 332 309 265 315 334 333 334 356 352 345 338 335 332 322 318 313 303
164 167 185 193 210 257 276 240 239 295 313 271 285 272 304 295 283 290 272 232 280 301 307 307 303 320 316 326 325 344 357 334 325 316 4 344 343 342 336 331 327 321 311 300
181 193 183 203 219 231 274 228 261 285 291 285 269 271 287 275 267 274 301 293 303 300 304 297 301 305 329 325 332 326 329 315 312 309 349 346 339 342 339 335 327 329 327 330
197 198 211 226 176 176 234 242 254 275 263 283 257 253 264 290 310 235 253 286 293 312 303 295 307 308 312 295 311 312 306 305 310 302 292 313 330 334 327 335 335 338 329 336
209 213 218 212 204 229 225 223 255 275 268 292 269 284 282 242 197 260 292 292 304 322 318 307 315 318 309 291 283 293 283 285 291 308 302 292 299 312 315 327 330 331 330 341
212 220 223 224 220 210 200 186 224 246 235 270 271 262 276 263 223 247 273 277 293 311 319 312 309 316 317 301 288 285 283 288 290 295 291 285 282 295 310 322 333 334 330 331
242 220 243 261 241 213 190 199 208 244 223 226 243 260 257 260 235 245 262 276 282 288 292 301 306 315 314 313 312 299 294 292 274 265 275 281 288 278 286 303 319 321 318 321